Asheville, NC

12:50 AM EDT on March 23, 2017 (GMT -0400)
Asheville Regional

Weather History for KAVL - February, 2009

Change the Weather History Date:

Wednesday, February 11, 2009

  Actual Average Record
Temperature  
Mean Temperature 53 °F 40 °F  
Max Temperature 58 °F 50 °F 74 °F (1932)
Min Temperature 48 °F 29 °F 7 °F (1955)
Degree Days  
Heating Degree Days 12 25  
Month to date heating degree days 289 289  
Since 1 July heating degree days 2877 2816  
Cooling Degree Days 0 0  
Month to date cooling degree days 0 0  
Year to date cooling degree days 0 0  
Growing Degree Days 2 (Base 50)    
Moisture  
Dew Point 46 °F    
Average Humidity 67    
Maximum Humidity 93    
Minimum Humidity 41    
Precipitation  
Precipitation 0.48 in 0.13 in 1.69 in (1985)
Month to date precipitation 0.58 1.45  
Year to date precipitation 2.98 5.12  
Snow  
Snow 0.00 in 0.10 in 4.20 in (1910)
Month to date snowfall T 1.0  
Since 1 July snowfall 1.0 6.1  
Snow Depth 0.00 in    
Sea Level Pressure  
Sea Level Pressure 29.97 in    
Wind  
Wind Speed 11 mph (SSW)    
Max Wind Speed 26 mph    
Max Gust Speed 37 mph    
Visibility 9 miles    
Events Rain    
T = Trace of Precipitation, MM = Missing Value Source: NWS Daily Summary

Daily Weather History Graph

Daily Weather History Graph

Search for Another Location

Airport or City:

Trip Planner

Search our weather history database for the weather conditions in past years. The results will help you decide how hot, cold, wet, or windy it might be!

Date:

Astronomy

Feb. 11, 2009 Rise Set
Actual Time 7:20 AM EST 6:08 PM EST
Civil Twilight 6:54 AM EST 6:34 PM EST
Nautical Twilight 6:24 AM EST 7:04 PM EST
Astronomical Twilight 5:54 AM EST 7:34 PM EST
Moon 8:47 PM EST (2/11) 8:19 AM EST (2/11)
Length of Visible Light 11h 40m
Length of Day
10h 47m
Waning Gibbous, 94% of the Moon is Illuminated
Feb 11
Waning Gibbous
Feb 16
Last Quarter
Feb 24
New
Mar 4
First Quarter
Mar 10
Full

Hourly Weather History & Observations

Time (EST) Temp. Dew Point Humidity Pressure Visibility Wind Dir Wind Speed Gust Speed Precip Events Conditions
12:54 AM 52.0 °F 43.0 °F 71% 30.11 in 10.0 mi SSE 6.9 mph - N/A   Partly Cloudy
1:54 AM 48.9 °F 43.0 °F 80% 30.09 in 10.0 mi SSE 4.6 mph - N/A   Partly Cloudy
2:54 AM 50.0 °F 43.0 °F 77% 30.08 in 10.0 mi Calm Calm - N/A   Mostly Cloudy
3:54 AM 48.9 °F 43.0 °F 80% 30.06 in 10.0 mi Calm Calm - N/A   Mostly Cloudy
4:54 AM 52.0 °F 44.1 °F 74% 30.06 in 10.0 mi SSW 6.9 mph - N/A   Overcast
5:54 AM 54.0 °F 45.0 °F 72% 30.05 in 10.0 mi South 16.1 mph 26.5 mph N/A   Overcast
6:54 AM 53.1 °F 44.1 °F 71% 30.06 in 10.0 mi South 11.5 mph 20.7 mph N/A   Overcast
7:54 AM 53.1 °F 45.0 °F 74% 30.06 in 10.0 mi South 19.6 mph 27.6 mph N/A   Overcast
8:50 AM 55.4 °F 46.4 °F 72% 30.08 in 10.0 mi South 20.7 mph 32.2 mph N/A   Mostly Cloudy
8:54 AM 55.0 °F 46.9 °F 74% 30.06 in 10.0 mi South 21.9 mph 32.2 mph N/A   Mostly Cloudy
9:03 AM 55.4 °F 48.2 °F 77% 30.08 in 10.0 mi South 18.4 mph 31.1 mph N/A   Mostly Cloudy
9:21 AM 55.4 °F 48.2 °F 77% 30.08 in 10.0 mi South 20.7 mph 28.8 mph N/A   Overcast
9:36 AM 55.4 °F 48.2 °F 77% 30.08 in 10.0 mi South 21.9 mph 35.7 mph N/A   Mostly Cloudy
9:54 AM 55.9 °F 48.0 °F 75% 30.06 in 10.0 mi SSW 18.4 mph 35.7 mph N/A   Overcast
10:08 AM 53.6 °F 46.4 °F 77% 30.10 in 10.0 mi SSW 24.2 mph 33.4 mph N/A   Overcast
10:54 AM 53.1 °F 48.0 °F 83% 30.06 in 7.0 mi South 17.3 mph - 0.00 in Rain Light Rain
11:54 AM 52.0 °F 48.9 °F 89% 30.03 in 9.0 mi South 13.8 mph 20.7 mph 0.00 in Rain Light Rain
12:42 PM 53.6 °F 48.2 °F 82% 30.03 in 9.0 mi South 18.4 mph 27.6 mph 0.00 in   Overcast
12:54 PM 53.1 °F 48.9 °F 86% 29.99 in 7.0 mi South 11.5 mph 24.2 mph 0.00 in Rain Light Rain
1:54 PM 53.1 °F 50.0 °F 89% 29.93 in 8.0 mi South 11.5 mph 24.2 mph 0.00 in   Overcast
2:54 PM 54.0 °F 50.0 °F 86% 29.88 in 7.0 mi SSW 12.7 mph 20.7 mph N/A   Overcast
3:54 PM 55.9 °F 52.0 °F 87% 29.82 in 8.0 mi South 15.0 mph 21.9 mph N/A   Overcast
4:19 PM 57.2 °F 51.8 °F 82% 29.83 in 8.0 mi South 21.9 mph 28.8 mph 0.00 in Rain Light Rain
4:29 PM 57.2 °F 53.6 °F 88% 29.83 in 7.0 mi South 18.4 mph 32.2 mph 0.00 in Rain Light Rain
4:54 PM 55.9 °F 53.1 °F 90% 29.79 in 2.0 mi South 15.0 mph 24.2 mph 0.02 in Rain Light Rain
5:54 PM 55.9 °F 54.0 °F 93% 29.74 in 2.0 mi South 10.4 mph 20.7 mph 0.08 in Rain Light Rain
6:54 PM 57.0 °F 54.0 °F 89% 29.78 in 5.0 mi West 4.6 mph - 0.38 in Rain Rain
7:05 PM 55.4 °F 53.6 °F 94% 29.80 in 10.0 mi Calm Calm - 0.00 in   Mostly Cloudy
7:54 PM 52.0 °F 50.0 °F 93% 29.78 in 10.0 mi Calm Calm - 0.00 in   Clear
8:54 PM 57.0 °F 35.1 °F 44% 29.82 in 10.0 mi WNW 8.1 mph 24.2 mph N/A   Clear
9:54 PM 55.9 °F 32.0 °F 40% 29.85 in 10.0 mi WNW 11.5 mph 25.3 mph N/A   Clear
10:54 PM 53.1 °F 32.0 °F 45% 29.88 in 10.0 mi NW 13.8 mph 20.7 mph N/A   Clear
11:54 PM 52.0 °F 30.9 °F 45% 29.90 in 10.0 mi WNW 5.8 mph - N/A   Clear